Location: Barcelona
(41.3830°N, 2.1830°E)
Time: 15:35:39
(UTC+02:00)

ISS - Pass Details

Date: 03 April 2020
Orbit: 416 x 423 km, 51.6° (Epoch: 02 April)

Event Time Altitude Azimuth Distance (km) Brightness Sun altitude
Rises 22:35:51 0° 297° (WNW) 2,359 1.4 -24.7°
Reaches altitude 10° 22:38:06 10° 286° (WNW) 1,493 0.0 -25.0°
Enters shadow 22:39:54 23° 260° (W) 941 -1.6 -25.3°
